Location: Newark
(13.8625°N, 100.5144°E)
Time: 18:59:04
(UTC+00:00)

LightSail 2 - Pass Details

Date: 17 May 2021
Orbit: 685 x 700 km, 24.0° (Epoch: 11 June)

Event Time Altitude Azimuth Distance (km) Brightness Sun altitude
Rises 13:19:39 0° 243° (WSW) 3,053 8.9 -23.3°
Reaches altitude 10° 13:22:05 10° 241° (WSW) 2,139 8.0 -23.8°
Enters shadow 13:26:44 67° 190° (S) 747 5.1 -24.8°
